| time (UTC) | temp F | wind direction | speed MPH | gust MPH | rain 1hr in | rain 24hr in | rain mn in | humidity % | barometer mb |
| 20260505005027 | 57 | 32 | 3.0 | 2.0 | 0.00 | 0.00 | 0.00 | 79 | 1010.0 |
| 20260505003527 | 57 | 75 | 2.0 | 2.0 | 0.00 | 0.00 | 0.00 | 79 | 1010.0 |
| 20260505002027 | 58 | 37 | 2.0 | 3.0 | 0.00 | 0.00 | 0.00 | 74 | 1011.0 |
| 20260505000527 | 58 | 37 | 2.0 | 3.0 | 0.00 | 0.00 | 0.00 | 73 | 1011.0 |
| 20260504235026 | 58 | 37 | 2.0 | 3.0 | 0.01 | 0.00 | 0.00 | 80 | 1011.0 |
| 20260504233526 | 58 | 37 | 2.0 | 3.0 | 0.01 | 0.00 | 0.00 | 79 | 1011.0 |
| 20260504232025 | 59 | 113 | 2.0 | 2.0 | 0.00 | 0.00 | 0.00 | 70 | 1012.0 |
| 20260504230525 | 59 | 113 | 2.0 | 2.0 | 0.00 | 0.00 | 0.00 | 70 | 1012.0 |
| 20260504225025 | 59 | 113 | 2.0 | 2.0 | 0.00 | 0.00 | 0.00 | 75 | 1011.0 |
| 20260504223524 | 59 | 113 | 2.0 | 2.0 | 0.00 | 0.00 | 0.00 | 73 | 1012.0 |
| 20260504222024 | 60 | 130 | 3.0 | 3.0 | 0.00 | 0.00 | 0.00 | 65 | 1012.0 |
| 20260504220524 | 61 | 130 | 3.0 | 3.0 | 0.00 | 0.00 | 0.00 | 70 | 1012.0 |
| 20260504215023 | 61 | 130 | 3.0 | 3.0 | 0.00 | 0.00 | 0.00 | 70 | 1012.0 |
| 20260504213523 | 61 | 130 | 3.0 | 3.0 | 0.00 | 0.00 | 0.00 | 69 | 1012.0 |
| 20260504212022 | 62 | 155 | 2.0 | 2.0 | 0.00 | 0.00 | 0.00 | 58 | 1012.0 |
| 20260504210522 | 62 | 155 | 2.0 | 2.0 | 0.00 | 0.00 | 0.00 | 58 | 1012.0 |
| 20260504205022 | 62 | 155 | 2.0 | 2.0 | 0.00 | 0.00 | 0.00 | 69 | 1012.0 |
| 20260504203521 | 62 | 155 | 2.0 | 2.0 | 0.00 | 0.00 | 0.00 | 69 | 1012.0 |
| 20260504202021 | 63 | 178 | 1.0 | 2.0 | 0.00 | 0.00 | 0.00 | 57 | 1012.0 |
| 20260504200521 | 64 | 178 | 1.0 | 2.0 | 0.00 | 0.00 | 0.00 | 56 | 1012.0 |
| 20260504195020 | 64 | 178 | 1.0 | 2.0 | 0.00 | 0.00 | 0.00 | 68 | 1012.0 |
| 20260504193520 | 64 | 178 | 1.0 | 2.0 | 0.00 | 0.00 | 0.00 | 67 | 1012.0 |
| 20260504192020 | 66 | 232 | 3.0 | 3.0 | 0.00 | 0.00 | 0.00 | 54 | 1012.0 |
| 20260504190519 | 67 | 232 | 3.0 | 3.0 | 0.00 | 0.00 | 0.00 | 62 | 1012.0 |
| 20260504185019 | 67 | 232 | 3.0 | 3.0 | 0.00 | 0.00 | 0.00 | 62 | 1012.0 |
| 20260504183519 | 67 | 172 | 5.0 | 6.0 | 0.00 | 0.00 | 0.00 | 62 | 1012.0 |
| 20260504182018 | 69 | 58 | 3.0 | 3.0 | 0.00 | 0.00 | 0.00 | 49 | 1012.0 |
| 20260504180518 | 70 | 58 | 3.0 | 3.0 | 0.00 | 0.00 | 0.00 | 48 | 1012.0 |
| 20260504175018 | 70 | 58 | 3.0 | 3.0 | 0.00 | 0.00 | 0.00 | 55 | 1011.0 |
| 20260504173517 | 71 | 58 | 3.0 | 3.0 | 0.00 | 0.00 | 0.00 | 55 | 1011.0 |
| 20260504172017 | 73 | 25 | 4.0 | 6.0 | 0.00 | 0.00 | 0.00 | 44 | 1012.0 |
| 20260504170516 | 73 | 25 | 4.0 | 6.0 | 0.00 | 0.00 | 0.00 | 44 | 1012.0 |
| 20260504150514 | 76 | 15 | 4.0 | 2.0 | 0.00 | 0.00 | 0.00 | 39 | 1012.0 |
| 20260504140513 | 76 | 358 | 4.0 | 2.0 | 0.00 | 0.00 | 0.00 | 39 | 1013.0 |
| 20260504130511 | 76 | 351 | 4.0 | 3.0 | 0.00 | 0.00 | 0.00 | 44 | 1013.0 |
| 20260504110508 | 73 | 14 | 3.0 | 2.0 | 0.00 | 0.00 | 0.00 | 44 | 1014.0 |
| 20260504100507 | 71 | 37 | 4.0 | 3.0 | 0.00 | 0.00 | 0.00 | 46 | 1014.0 |
| 20260504082004 | 67 | 332 | 5.0 | 7.0 | 0.00 | 0.00 | 0.00 | 51 | 1015.0 |
| 20260504080503 | 66 | 332 | 5.0 | 7.0 | 0.00 | 0.00 | 0.00 | 57 | 1014.0 |
| 20260504050459 | 55 | 200 | 3.0 | 5.0 | 0.00 | 0.00 | 0.00 | 66 | 1014.0 |
| 20260504044958 | 55 | 200 | 3.0 | 5.0 | 0.00 | 0.00 | 0.00 | 72 | 1014.0 |
| 20260504043458 | 55 | 200 | 3.0 | 5.0 | 0.00 | 0.00 | 0.00 | 72 | 1014.0 |
| 20260504041958 | 54 | 158 | 5.0 | 6.0 | 0.00 | 0.00 | 0.00 | 66 | 1014.0 |
| 20260504040457 | 54 | 158 | 5.0 | 6.0 | 0.00 | 0.00 | 0.00 | 66 | 1014.0 |
| 20260504034957 | 53 | 158 | 5.0 | 6.0 | 0.00 | 0.00 | 0.00 | 71 | 1014.0 |
| 20260504033456 | 53 | 158 | 5.0 | 6.0 | 0.00 | 0.00 | 0.00 | 71 | 1014.0 |
| 20260504031956 | 54 | 161 | 5.0 | 6.0 | 0.00 | 0.00 | 0.00 | 64 | 1014.0 |
| 20260504030456 | 54 | 161 | 5.0 | 6.0 | 0.00 | 0.00 | 0.00 | 62 | 1014.0 |
| 20260504024956 | 53 | 161 | 5.0 | 6.0 | 0.00 | 0.00 | 0.00 | 68 | 1014.0 |
| 20260504023455 | 53 | 161 | 5.0 | 6.0 | 0.00 | 0.00 | 0.00 | 67 | 1014.0 |
| 20260504021955 | 55 | 153 | 4.0 | 5.0 | 0.00 | 0.00 | 0.00 | 61 | 1014.0 |
| 20260504020454 | 54 | 153 | 4.0 | 5.0 | 0.00 | 0.00 | 0.00 | 64 | 1014.0 |
| 20260504014954 | 54 | 153 | 4.0 | 5.0 | 0.00 | 0.00 | 0.00 | 64 | 1014.0 |
| 20260504013454 | 55 | 153 | 4.0 | 5.0 | 0.00 | 0.00 | 0.00 | 64 | 1014.0 |
| 20260504011953 | 56 | 126 | 1.0 | 2.0 | 0.00 | 0.00 | 0.00 | 57 | 1014.0 |
| 20260504010453 | 55 | 126 | 1.0 | 2.0 | 0.00 | 0.00 | 0.00 | 62 | 1014.0 |